SCP
3 3 3 3 2 2 2 2 2 1 1 1 1 1 1 1 1 1 1 1 1 2 1 1 1 1 0 0 0 0 0 0 0 0 0 0 0 0 0 0 0 0 0
3 3 3 3 3 2 2 2 2 2 2 1 1 1 1 1 1 1 1 1 1 1 1 1 1 1 0 0 0 0 0 0 0 0 0 0 0 0 0 0 0 0 0
3 3 3 3 3 2 2 2 2 2 2 2 1 1 1 1 1 1 1 1 1 1 1 1 1 1 0 0 0 0 0 0 0 0 0 0 0 0 0 0 0 0 0
3 3 3 3 3 2 2 2 2 2 2 2 1 1 1 2 2 1 1 1 1 1 1 1 1 1 1 0 0 0 0 0 0 0 0 0 0 0 0 0 0 0 0
4 4 3 2 2 2 2 2 2 2 2 2 1 1 2 2 2 1 1 1 1 1 0 1 1 1 1 1 0 0 0 0 0 0 0 0 0 0 0 0 0 0 0
3 3 2 2 2 2 2 2 2 2 2 2 1 1 2 2 2 1 1 1 1 1 0 0 1 1 1 1 0 0 0 0 0 0 0 0 0 0 0 0 0 0 0
2 2 2 2 2 1 1 2 1 1 1 1 1 2 2 2 2 1 1 1 1 1 1 0 0 0 0 0 0 0 0 0 0 0 0 0 0 0 0 0 0 0 0
1 1 1 1 1 1 1 1 1 1 1 1 1 2 2 2 2 1 1 1 1 1 1 0 0 0 0 0 0 0 0 0 0 0 0 0 0 0 1 1 0 0 0
0 0 0 0 0 0 0 0 0 0 1 1 1 1 1 1 1 1 1 1 1 1 1 0 0 0 0 0 0 0 0 0 0 0 0 0 0 1 1 0 0 0 0
0 0 0 0 0 0 0 0 0 0 0 1 1 1 1 0 0 0 0 1 1 1 1 0 0 0 0 0 0 0 0 0 0 0 0 1 1 1 1 0 0 0 0
0 0 0 0 0 0 0 0 0 0 0 1 1 1 1 0 0 0 0 0 0 0 0 0 0 0 0 0 0 0 0 0 0 0 1 1 1 1 1 0 0 0 0
0 0 0 0 0 0 0 0 0 0 0 0 1 1 0 0 0 0 0 0 0 0 0 0 0 0 0 0 0 0 0 0 0 0 1 1 1 1 1 0 0 0 0
0 0 0 0 0 0 0 0 0 0 0 0 0 0 0 0 0 0 0 0 0 0 0 0 0 0 0 0 0 0 0 0 0 0 0 0 1 1 1 1 0 0 0
0 0 0 0 0 0 0 0 0 0 0 0 0 0 0 0 0 0 0 0 0 0 0 0 0 0 0 0 0 0 0 0 0 0 0 0 0 0 0 0 0 0 0
0 0 0 0 0 0 0 0 0 0 0 0 0 0 0 0 0 0 0 0 0 0 0 0 0 0 0 0 0 0 0 0 0 0 0 0 0 0 0 0 0 0 0
0 0 0 0 0 0 0 0 0 0 0 0 0 0 0 0 0 0 0 0 0 0 0 0 0 0 0 0 0 0 0 0 0 0 0 0 0 0 0 0 0 0 0
0 0 0 0 0 0 0 0 0 0 0 0 0 0 0 0 0 0 0 0 0 0 0 0 0 0 0 0 0 0 0 0 0 0 0 0 0 0 0 0 0 0 0
0 0 0 0 0 0 0 0 0 0 0 0 0 0 0 0 0 0 0 0 0 0 0 0 0 0 0 0 0 0 0 0 0 0 0 0 0 0 0 0 0 0 0
0 0 0 0 0 0 0 0 0 0 0 0 0 0 0 0 0 0 0 0 0 0 0 0 0 0 0 0 0 0 0 0 0 0 0 0 0 0 0 0 0 0 0
0 0 0 0 0 0 0 0 0 0 0 0 0 0 0 0 0 0 0 0 0 0 0 0 0 0 0 0 0 0 0 0 0 0 0 0 0 0 0 0 0 0 0
0 0 0 0 0 0 0 0 0 0 0 0 0 0 0 0 0 0 0 0 0 0 0 0 0 0 0 0 0 0 0 0 0 0 0 0 0 0 0 0 0 0 0
0 0 0 0 0 0 0 0 0 0 0 0 0 0 0 0 0 0 0 0 0 0 0 0 0 0 0 0 0 0 0 0 0 0 0 0 0 0 0 0 0 0 0
0 0 0 0 0 0 0 0 0 0 0 0 0 0 0 0 0 0 0 0 0 0 0 0 0 0 0 0 0 0 0 0 0 0 0 0 0 0 0 0 0 0 0
0 0 0 0 0 0 0 0 0 0 0 0 0 0 0 0 0 0 0 0 0 0 0 0 0 0 0 0 0 0 0 0 0 0 0 0 0 0 0 0 0 0 0
0 0 0 0 0 0 0 0 0 0 0 0 0 0 0 0 0 0 0 0 0 0 0 0 0 0 0 0 0 0 0 0 0 0 0 0 0 0 0 0 0 0 0
0 0 0 0 0 0 0 0 0 0 0 0 0 0 0 0 0 0 0 0 0 0 0 0 0 0 0 0 0 0 0 0 0 0 0 0 0 0 0 0 0 0 0
Wind_Speed
3 3 2 2 2 2 2 2 2 2 2 2 2 2 2 2 3 3 3 6 6 5 4 4 4 5 5 5 6 7 8 8 8 8 9 9 10 10 10 10 11 11 12
3 3 2 2 2 2 2 2 2 2 2 2 2 2 2 2 2 3 3 4 5 5 4 4 4 4 5 6 6 7 8 8 8 9 9 10 10 11 11 11 12 12 12
3 3 3 2 2 2 2 1 2 2 2 2 2 2 2 2 2 2 3 3 3 4 4 3 3 4 5 5 6 7 7 8 8 9 9 10 11 11 12 12 12 12 13
3 3 3 2 2 2 1 2 2 2 2 2 1 1 1 1 2 2 2 3 2 2 2 3 3 3 4 5 6 7 7 8 8 9 10 10 11 12 12 13 13 13 13
3 3 3 3 3 2 1 1 2 2 2 2 1 1 1 1 1 1 2 3 3 2 2 2 1 2 4 5 6 7 7 8 9 9 10 11 11 12 13 13 13 13 13
2 2 3 3 3 2 2 1 1 2 2 2 2 1 1 1 1 1 2 2 2 2 2 2 1 0 2 4 6 7 7 8 9 9 10 11 12 12 13 13 13 14 14
2 3 3 3 3 3 3 3 2 3 2 2 2 1 1 0 1 1 1 2 2 2 2 1 1 1 0 3 5 7 7 9 9 10 10 11 12 13 13 14 13 14 13
2 3 3 3 3 3 3 3 3 2 2 2 2 2 1 1 1 0 1 1 1 1 1 1 1 1 1 1 3 6 8 9 9 10 11 12 12 13 13 13 13 14 13
3 3 3 3 4 4 3 3 3 3 3 1 2 3 3 2 0 1 1 1 1 1 1 1 1 1 1 1 1 4 7 9 10 11 12 12 13 13 13 13 13 14 14
3 3 3 3 3 4 4 3 2 2 3 3 1 1 2 3 2 0 1 1 0 0 0 0 0 0 0 0 1 4 7 9 10 12 12 13 13 14 13 13 13 13 13
2 2 3 3 3 3 4 4 3 2 2 3 2 1 1 1 1 2 1 1 1 1 1 1 1 0 0 1 0 3 7 9 10 12 12 13 13 14 14 13 13 14 13
1 2 2 2 3 3 4 4 3 3 2 2 2 2 2 2 2 2 2 1 1 1 1 1 0 0 0 0 1 5 7 9 10 11 12 12 13 14 14 14 14 14 14
2 3 2 2 2 2 3 3 3 3 3 3 2 2 1 1 2 1 2 1 1 1 1 1 1 0 0 1 1 5 6 9 10 11 11 12 13 14 13 13 14 14 14
2 3 2 2 2 2 3 3 3 2 2 2 2 2 2 1 1 2 2 2 0 1 1 1 1 0 0 1 2 5 3 8 10 10 11 11 12 13 13 13 13 13 14
2 3 3 3 2 2 3 3 3 3 2 2 2 3 2 1 1 1 2 3 3 2 2 1 0 1 1 1 2 2 3 6 10 10 11 11 11 12 12 12 12 12 13
1 3 3 3 3 3 3 3 3 3 3 2 2 2 2 2 2 2 2 1 2 2 2 2 1 2 2 2 4 3 3 8 9 10 10 11 11 11 12 11 11 12 12
2 2 3 3 3 3 3 3 3 3 3 2 2 3 2 2 2 2 2 1 1 1 2 2 2 1 2 3 3 3 3 3 3 9 10 11 11 11 11 11 11 12 13
2 2 2 3 3 3 3 4 4 4 4 4 3 3 3 2 2 2 2 2 1 1 2 3 2 2 2 3 3 3 3 3 3 8 10 10 10 11 11 11 11 12 13
2 2 2 3 3 3 3 3 3 3 3 4 4 4 4 4 3 2 2 2 1 1 1 2 2 2 2 2 3 3 3 3 4 6 7 9 9 10 11 11 11 12 13
2 2 2 2 2 2 2 2 2 3 3 3 3 3 3 4 4 3 3 3 2 1 1 1 2 2 2 2 2 3 4 3 4 4 6 7 8 10 11 12 12 12 13
1 2 1 1 2 2 2 2 2 2 3 2 2 2 2 3 3 2 2 2 2 2 2 1 2 2 2 2 2 3 4 4 4 3 4 4 4 4 5 8 10 11 12
0 1 2 1 1 1 2 3 2 2 2 3 2 2 2 2 3 2 2 2 2 2 2 2 2 3 3 3 3 3 3 4 4 2 3 5 3 4 4 3 8 11 12
1 1 1 1 1 1 3 3 2 1 2 2 3 2 2 1 2 2 1 1 1 2 3 3 3 4 3 3 3 3 3 4 5 4 4 5 3 4 4 5 10 11 12
1 0 0 1 1 1 2 3 2 1 2 2 2 3 3 2 2 2 1 0 0 1 2 1 2 2 3 3 3 3 4 4 4 3 2 4 4 4 5 4 8 10 12
0 0 0 1 1 1 2 3 2 1 1 1 2 2 2 2 3 2 2 1 0 1 2 2 3 3 4 5 4 2 2 3 4 3 2 2 3 4 4 4 5 9 11
0 0 0 1 1 1 2 2 2 2 2 1 1 1 2 2 2 2 2 2 1 1 1 2 2 3 3 3 5 2 2 2 3 3 2 2 3 4 4 3 3 4 6
Wind_Direction
152 149 154 160 160 157 166 162 151 137 124 113 118 119 119 110 108 109 103 96 89 76 67 59 53 46 38 31 24 18 10 7 4 1 355 351 347 342 338 335 333 330 327
153 153 155 157 155 158 157 152 148 134 124 118 121 126 127 114 110 116 128 111 96 85 70 59 47 38 31 26 19 14 11 9 5 2 357 351 348 344 339 335 332 329 326
156 156 154 155 159 155 137 133 135 128 131 130 135 133 126 112 111 120 129 132 126 104 87 66 47 35 25 19 14 10 8 5 3 360 356 353 347 343 340 335 331 329 327
154 153 156 156 150 141 140 140 146 140 140 139 139 140 135 123 108 127 124 122 121 121 113 82 49 31 22 13 7 5 2 359 356 355 354 350 346 343 339 336 332 330 328
148 150 157 155 144 140 152 159 150 152 143 133 133 132 137 137 137 137 133 130 127 127 135 122 65 30 13 4 359 357 356 355 353 351 350 347 344 342 339 337 334 332 331
151 145 155 154 146 144 158 153 152 141 136 142 124 103 133 146 146 160 156 140 142 143 130 130 122 45 3 354 351 349 347 349 348 347 347 344 341 340 337 335 332 331 331
150 153 149 148 148 156 167 160 141 136 127 124 102 85 2 37 132 131 135 141 140 143 142 135 120 100 2 347 348 343 341 343 344 344 343 340 338 337 336 334 334 334 332
165 165 151 153 150 145 161 163 146 149 157 152 139 133 107 336 336 316 128 135 147 140 146 142 130 108 81 62 341 341 339 341 341 341 340 337 336 335 336 336 335 333 334
164 160 155 153 153 152 161 168 161 162 170 200 153 145 151 195 260 310 248 156 144 146 169 141 132 133 127 89 347 335 337 342 340 339 337 335 334 332 333 334 335 335 335
162 162 157 154 163 160 159 168 168 165 165 178 191 146 152 153 142 209 301 285 200 191 190 207 112 215 156 115 334 332 340 340 339 338 336 335 333 331 332 334 335 335 334
163 162 157 160 171 167 161 163 161 162 179 174 172 163 137 118 125 151 225 271 303 270 230 209 172 201 82 69 345 332 341 340 339 338 336 336 335 334 334 336 335 335 334
174 171 158 162 177 173 165 166 161 162 175 179 171 159 151 159 175 156 186 220 250 272 278 255 191 192 111 62 343 340 339 339 339 339 337 336 336 335 334 335 333 332 332
187 192 178 177 178 173 168 160 157 172 179 181 180 173 161 171 158 149 153 208 274 285 268 259 237 146 43 60 349 332 335 335 336 336 335 337 337 336 335 337 335 335 335
192 183 178 178 174 173 171 161 163 176 177 171 173 157 156 166 144 148 157 159 218 297 268 252 284 138 13 13 315 322 323 331 333 333 333 335 336 336 336 336 335 335 334
181 172 174 174 169 174 172 165 167 172 165 173 171 160 163 167 152 146 149 157 168 214 263 247 306 296 335 326 308 314 304 323 329 330 330 332 333 333 333 334 334 334 334
167 175 172 170 169 173 172 166 164 167 164 178 166 163 173 165 154 149 163 174 177 184 231 257 270 282 308 317 315 316 306 320 325 324 327 329 330 332 333 334 334 334 334
174 180 171 168 170 172 170 168 174 167 167 173 171 177 189 170 163 163 162 170 186 184 234 276 293 301 309 308 306 303 305 304 306 318 321 324 328 331 333 333 333 333 332
182 172 167 170 171 174 173 174 179 172 175 182 184 181 187 174 168 168 169 183 197 209 214 259 291 301 296 291 295 302 308 311 308 313 316 323 327 329 331 330 332 333 333
175 167 164 180 179 178 174 174 172 175 183 188 181 184 188 174 180 180 178 188 199 218 211 232 277 290 293 294 308 306 306 306 313 315 319 322 322 326 330 331 332 333 333
161 163 171 180 180 179 171 170 170 178 184 182 180 187 186 182 186 182 189 193 194 199 203 226 264 282 289 296 309 312 318 316 317 314 316 315 317 326 327 327 328 329 331
157 156 163 180 180 173 170 165 171 175 172 167 179 184 177 177 185 194 203 197 186 192 200 224 251 281 285 304 303 306 309 314 312 304 308 311 317 318 320 321 324 327 328
78 124 148 173 191 185 165 160 163 177 170 167 175 174 163 163 176 207 249 243 213 202 210 219 251 258 276 290 300 302 310 317 311 309 316 307 309 307 306 306 318 324 327
68 71 143 164 180 177 170 169 170 174 173 181 181 173 177 171 165 163 214 327 333 299 255 235 233 250 264 274 286 297 302 301 293 296 312 300 303 300 302 308 318 324 327
87 58 176 179 161 170 175 174 172 167 169 183 185 183 177 179 180 175 178 174 18 350 297 271 232 252 265 274 266 271 283 295 293 295 305 295 300 299 304 301 311 324 330
108 300 236 182 162 177 179 170 166 166 167 187 192 181 176 179 192 187 154 146 66 356 355 340 314 308 312 318 314 312 309 309 309 308 315 295 300 308 300 294 309 326 330
348 283 277 206 190 189 185 180 178 170 169 180 181 174 179 184 187 188 170 164 185 263 311 344 351 344 337 336 332 308 280 291 302 301 298 313 308 325 315 296 304 321 324